Погода в Лужникове

Россия / Тверская область     57°24′06″N   34°08′10″E
темп.,
°C
ветер,
м/с
пор.,
м/с
влажн.,
%
обл.,
%
осадки,
мм/ч
давл.,
гПа
погр.,
м
3 августа, вт
вт300:00+16ююз61393100 0.1 997942
03:00+15зюз7149181 0.3 10001161
06:00+14зюз51189100 0.0 1003869
09:00+16зюз597385 0.1 1005879
12:00+21юз584684 0.0 10061983
15:00+19юз595867 0.1 10071499
18:00+19зюз495942 0.5 10071556
21:00+16зюз39660 0.6 1009361
4 августа, ср
ср400:00+12зюз310860 0.0 1011255
03:00+11зюз29960 0.0 1012217
06:00+10зюз26910 0.0 1014154
09:00+17з23535 0.0 1015839
12:00+21з463969 0.0 10152474
15:00+20з3542100 0.0 10151202
18:00+19сз2443100 0.0 1016955
21:00+15зсз1160100 0.0 101720
5 августа, чт
чт500:00+14с1162100 0.0 101720
03:00+12з117082 0.0 101811
06:00+13ссв1168100 0.0 101831
09:00+16в2355100 0.0 1018333
12:00+19в2348100 0.0 1017701
15:00+17ююз4673100 0.6 1017567
18:00+13св1198100 5.1 101774
21:00+13всв2699100 7.3 1016297
6 августа, пт
пт600:00+13в3898100 0.4 1015410
03:00+13в3899100 1.7 1014426
06:00+13в3899100 0.2 1013440
09:00+14всв4998100 0.4 1012585
12:00+14всв4997100 0.0 1012542
15:00+15всв4995100 0.3 1011701
18:00+15всв51092100 0.1 1011818
21:00+15в51190100 0.1 1011767
7 августа, сб
сб700:00+14в51193100 0.0 1010538
03:00+14в41195100 0.0 1010527
06:00+14в41099100 0.8 1009505
09:00+14в3999100 1.7 1009443
12:00+17в379693 0.0 1010409
15:00+20в3580100 0.1 1009570
18:00+16всв3899100 9.4 1008402
21:00+17вюв03100100 15.1 1007225